Wind_Speed
49 50 51 52 53 54 55 56 57 58 60 62 64 66 67 69 70 71 72 72 72 72 71 71 71 70 70 69 68 67 66 64 63 62 62 61 61 62
52 53 54 55 56 57 57 58 59 60 61 62 64 65 66 67 68 68 68 68 68 68 68 68 67 65 63 62 61 59 58 57 56 55 54 54 54 54
56 56 56 57 58 58 59 59 60 61 61 62 63 64 65 65 65 66 66 65 65 64 63 61 59 57 56 54 53 52 50 50 49 49 49 49 49 49
58 58 58 58 59 59 59 60 60 61 61 60 60 61 62 63 63 62 61 61 59 57 56 54 53 51 48 47 46 46 45 45 44 45 45 44 44 44
59 58 58 59 59 59 60 60 59 59 59 58 58 59 59 59 58 56 55 53 52 51 49 47 45 44 43 42 42 42 42 41 41 41 40 40 39 39
58 59 59 59 59 59 58 58 57 57 56 56 56 55 55 54 52 50 47 46 45 44 44 42 41 40 39 38 38 37 37 37 37 37 37 36 36 36
58 59 59 58 57 57 56 56 55 54 54 53 52 50 49 47 45 44 42 40 39 39 38 37 37 36 36 35 35 34 34 34 34 34 33 33 33 32
57 57 56 56 55 55 54 53 52 51 50 48 46 44 42 40 38 36 35 34 33 34 33 33 33 33 33 33 33 33 32 32 32 32 32 31 30 30
54 54 54 54 53 51 50 49 48 47 44 42 39 37 34 32 31 30 30 30 30 29 28 28 30 30 31 31 31 31 30 30 30 30 29 29 29 28
52 51 50 49 47 45 44 44 43 41 38 35 31 29 27 26 26 25 24 25 26 25 24 24 26 27 29 30 29 27 27 27 28 28 27 27 26 26
47 45 43 41 40 39 38 36 35 33 31 27 24 23 23 22 22 21 22 22 23 23 24 24 24 25 26 27 25 24 23 23 23 24 24 24 23 23
40 38 37 35 34 32 29 27 25 23 21 20 20 20 19 19 19 19 20 20 20 20 21 21 22 22 22 24 23 22 21 20 19 19 19 19 20 20
33 31 30 28 25 22 19 17 16 15 15 15 16 16 16 17 17 18 18 19 19 20 20 20 21 22 22 23 23 22 20 18 16 15 15 15 15 16
25 23 20 17 14 12 10 9 9 10 11 12 13 14 14 15 16 17 18 18 19 20 21 22 23 23 24 24 23 22 19 16 14 12 11 10 11 12
15 12 10 8 6 4 4 5 6 8 10 11 12 13 14 14 15 16 17 19 20 21 23 24 24 25 25 25 24 22 19 15 12 9 6 5 6 7
4 2 1 2 3 4 5 6 8 9 10 11 12 13 14 15 16 17 18 20 21 22 23 24 25 26 26 27 25 22 19 15 11 8 4 1 2 4
5 6 7 7 7 8 9 10 11 12 12 13 14 15 16 17 18 18 19 20 21 22 24 24 25 26 27 27 25 23 20 16 12 9 7 5 5 5
11 11 11 11 11 12 12 12 13 13 14 15 16 17 18 18 19 19 19 20 21 22 23 24 25 26 27 26 25 23 21 18 16 13 11 10 9 9
13 13 13 13 13 13 13 13 14 14 15 16 17 18 19 20 20 20 20 21 22 22 23 24 24 25 25 25 25 23 22 21 19 17 15 14 13 12
14 13 13 14 13 13 13 14 15 16 17 18 19 19 20 21 21 21 21 22 22 22 22 23 23 23 25 26 26 24 23 22 21 19 18 16 15 13
14 14 14 13 13 13 14 14 15 16 17 19 20 20 21 21 22 22 22 22 22 22 22 22 23 24 25 26 26 25 24 23 22 21 20 19 17 16
13 13 13 13 13 13 14 14 15 17 18 19 20 21 22 22 23 23 23 23 22 22 22 22 24 24 24 24 25 26 26 25 24 23 22 21 20 19
13 12 12 12 12 13 14 15 16 17 18 19 20 21 22 23 24 24 24 24 23 22 22 22 22 23 24 25 25 25 25 26 26 24 23 23 22 22
Wind_Direction
289 289 288 288 288 289 288 287 286 286 286 287 286 286 286 286 286 287 287 288 288 288 288 287 286 286 285 284 283 281 280 278 277 276 274 273 270 268
290 289 289 289 289 290 290 289 289 289 288 288 287 287 288 288 288 289 289 289 289 289 288 288 287 287 286 285 284 283 281 278 276 275 274 273 271 268
290 290 290 290 290 291 292 292 291 291 290 290 290 290 290 290 291 291 291 291 290 290 290 289 288 288 287 286 285 283 281 278 276 275 274 273 272 269
290 291 291 292 292 292 292 292 292 292 292 292 292 292 292 292 293 293 292 292 292 292 291 290 290 288 287 285 284 283 281 280 278 276 274 273 271 269
291 292 292 292 292 293 292 293 293 293 294 294 293 293 294 294 294 294 294 294 294 293 292 291 290 289 287 286 285 283 281 280 278 276 273 272 271 269
291 292 292 292 292 292 293 293 294 294 295 295 295 295 295 296 296 297 297 297 296 295 294 293 292 291 289 288 286 284 283 282 279 276 274 271 269 267
291 291 291 291 292 292 293 293 294 294 295 296 296 297 297 298 299 300 300 299 298 297 296 295 294 293 292 291 289 287 284 283 280 277 275 272 268 265
290 290 290 291 291 292 292 293 294 294 295 296 297 298 299 301 302 302 303 302 301 299 298 297 297 296 295 294 292 290 287 284 281 279 275 271 267 262
288 289 290 290 291 292 292 292 294 295 296 298 299 301 302 304 305 306 307 309 309 307 304 302 301 300 299 297 296 293 289 285 282 279 276 271 266 261
288 289 290 290 290 290 291 293 294 296 299 301 303 306 308 310 313 315 316 317 318 317 316 313 310 308 306 304 302 298 292 287 283 279 274 270 265 260
290 291 290 290 290 290 291 292 295 298 301 304 308 312 316 320 322 324 325 326 326 324 325 324 321 319 317 314 313 309 301 293 286 280 274 269 264 259
290 290 290 290 290 291 291 292 296 299 305 312 318 323 327 330 333 335 336 336 336 334 333 332 332 331 329 326 325 321 313 304 295 286 277 269 263 257
288 289 290 291 291 291 292 295 299 307 316 324 329 332 335 337 340 342 345 346 347 347 347 346 345 343 341 338 334 329 323 313 303 293 282 272 262 253
288 289 290 291 291 294 299 306 316 327 335 340 342 344 345 347 350 351 352 353 354 355 355 355 354 352 351 348 345 340 335 327 317 306 290 273 260 249
286 287 289 293 301 314 327 342 353 357 358 359 360 359 358 357 356 357 358 358 358 359 360 359 359 358 357 356 355 352 348 344 338 327 306 280 253 237
294 302 360 61 64 53 45 38 30 22 17 16 14 11 7 5 3 1 1 360 0 1 1 1 2 2 2 2 2 3 3 4 5 4 5 2 197 193
88 92 93 88 79 71 62 52 43 36 31 26 21 17 12 8 5 3 3 2 2 1 2 4 5 7 8 10 12 15 18 22 29 39 53 75 99 125
96 96 92 86 80 73 65 56 47 39 34 28 23 19 14 11 9 7 6 6 6 6 6 8 11 12 14 17 19 24 31 37 45 53 62 77 93 107
98 94 89 85 79 72 63 56 48 41 35 29 24 20 17 15 13 11 10 10 10 11 11 13 15 17 20 23 27 32 38 44 51 60 67 77 89 99
97 93 89 83 76 68 60 52 45 40 34 29 25 21 19 17 15 14 13 13 13 14 16 19 22 25 29 32 34 39 45 50 55 61 68 77 85 94
96 91 86 79 70 62 54 48 42 38 34 29 25 22 21 19 18 16 16 17 18 20 23 26 29 32 35 37 40 45 50 53 57 62 69 75 81 87
94 89 82 73 65 57 50 45 40 35 31 28 26 25 24 22 20 20 20 21 22 25 29 32 35 37 39 41 45 49 53 56 59 64 69 73 79 86
89 84 76 67 58 53 48 43 38 33 30 30 30 30 30 29 28 26 25 25 27 31 34 37 40 41 43 46 49 52 55 58 61 65 70 74 80 86
Height
5775 5771 5767 5763 5759 5755 5750 5746 5742 5737 5731 5723 5715 5707 5700 5694 5687 5681 5675 5668 5662 5656 5650 5645 5639 5634 5630 5625 5621 5617 5614 5611 5608 5606 5605 5604 5604 5604
5761 5757 5753 5748 5744 5739 5734 5729 5725 5720 5715 5708 5699 5691 5683 5676 5670 5663 5657 5650 5644 5637 5631 5626 5620 5615 5610 5606 5602 5598 5595 5592 5590 5588 5586 5585 5585 5584
5746 5742 5738 5733 5728 5723 5718 5712 5707 5702 5697 5691 5682 5674 5667 5660 5653 5646 5639 5632 5626 5619 5613 5607 5602 5598 5593 5589 5585 5581 5578 5575 5573 5571 5570 5569 5568 5567
5731 5727 5723 5718 5712 5707 5702 5696 5690 5684 5680 5675 5666 5658 5650 5644 5638 5630 5623 5616 5609 5603 5597 5592 5587 5582 5578 5574 5570 5567 5564 5561 5558 5557 5555 5554 5553 5552
5716 5711 5707 5702 5696 5691 5686 5680 5674 5668 5663 5658 5652 5643 5636 5629 5623 5616 5608 5601 5595 5589 5583 5578 5573 5569 5565 5561 5557 5554 5551 5548 5546 5544 5542 5541 5540 5539
5700 5696 5691 5686 5681 5675 5670 5665 5659 5654 5648 5642 5637 5630 5622 5615 5609 5603 5596 5589 5582 5576 5570 5565 5561 5557 5553 5549 5545 5542 5539 5536 5533 5532 5530 5529 5529 5528
5684 5680 5675 5670 5665 5660 5655 5650 5645 5640 5634 5629 5623 5617 5610 5603 5597 5591 5585 5579 5573 5566 5560 5555 5551 5546 5542 5538 5534 5531 5528 5525 5522 5521 5519 5518 5518 5518
5668 5664 5659 5655 5650 5646 5641 5636 5632 5628 5623 5617 5611 5605 5600 5593 5587 5581 5575 5570 5564 5558 5552 5547 5542 5537 5532 5528 5524 5520 5517 5514 5512 5510 5509 5508 5508 5508
5653 5649 5644 5640 5636 5632 5627 5623 5619 5615 5611 5607 5602 5596 5591 5585 5580 5574 5568 5562 5556 5550 5545 5540 5534 5529 5524 5519 5515 5511 5508 5505 5502 5500 5499 5498 5498 5499
5638 5634 5630 5626 5623 5620 5616 5612 5609 5605 5601 5597 5593 5589 5584 5578 5573 5567 5562 5556 5550 5543 5539 5534 5528 5523 5517 5511 5506 5503 5499 5496 5493 5491 5490 5489 5489 5490
5625 5621 5618 5614 5611 5609 5606 5603 5600 5597 5593 5590 5586 5582 5578 5573 5567 5562 5557 5552 5546 5540 5534 5529 5524 5518 5511 5505 5500 5495 5491 5488 5485 5482 5481 5481 5481 5481
5612 5610 5607 5604 5602 5600 5598 5596 5594 5591 5588 5585 5581 5577 5573 5568 5564 5559 5554 5549 5543 5538 5532 5526 5520 5514 5508 5501 5495 5489 5485 5481 5478 5475 5474 5473 5473 5474
5602 5600 5599 5597 5595 5594 5592 5591 5590 5587 5585 5582 5578 5574 5570 5566 5562 5557 5552 5547 5542 5536 5530 5524 5518 5511 5504 5498 5491 5485 5480 5475 5472 5470 5468 5467 5467 5468
5595 5594 5592 5591 5591 5590 5589 5588 5587 5585 5583 5580 5577 5573 5569 5565 5561 5556 5551 5546 5540 5535 5528 5522 5516 5509 5502 5495 5488 5482 5476 5471 5468 5465 5463 5463 5463 5464
5590 5589 5589 5589 5589 5588 5588 5587 5586 5584 5582 5579 5576 5572 5569 5565 5560 5556 5550 5545 5540 5534 5528 5521 5515 5508 5500 5493 5486 5479 5473 5468 5465 5462 5460 5460 5460 5461
5587 5588 5588 5588 5589 5589 5588 5587 5586 5584 5582 5579 5576 5572 5568 5564 5560 5555 5550 5545 5540 5534 5528 5522 5515 5508 5500 5492 5485 5478 5472 5467 5463 5461 5459 5459 5459 5460
5588 5589 5589 5590 5590 5590 5589 5588 5587 5585 5582 5579 5576 5573 5569 5564 5560 5555 5551 5546 5540 5535 5529 5522 5515 5508 5501 5493 5486 5479 5473 5468 5465 5462 5461 5460 5460 5461
5591 5591 5592 5592 5592 5592 5591 5590 5588 5586 5583 5580 5577 5573 5569 5565 5561 5556 5551 5546 5541 5535 5529 5523 5516 5510 5503 5496 5490 5483 5477 5472 5468 5466 5464 5464 5464 5464
5594 5595 5595 5595 5595 5594 5593 5592 5590 5588 5585 5582 5578 5574 5570 5566 5561 5557 5552 5547 5542 5536 5531 5525 5519 5513 5506 5500 5493 5487 5482 5477 5474 5471 5469 5468 5468 5469
5598 5598 5598 5598 5598 5597 5596 5594 5592 5590 5587 5583 5580 5576 5572 5567 5563 5558 5553 5548 5543 5538 5533 5527 5522 5516 5510 5504 5498 5493 5488 5484 5480 5478 5476 5474 5474 5474
5602 5602 5602 5602 5601 5600 5599 5597 5595 5592 5589 5586 5582 5578 5574 5569 5565 5560 5555 5550 5545 5540 5535 5530 5525 5519 5514 5509 5505 5499 5495 5491 5487 5485 5483 5481 5481 5480
5607 5607 5606 5606 5605 5604 5602 5600 5597 5594 5591 5588 5584 5580 5576 5571 5567 5562 5557 5552 5547 5543 5538 5533 5529 5524 5520 5515 5511 5506 5502 5498 5495 5492 5490 5489 5488 5487
5611 5611 5610 5609 5608 5607 5605 5603 5600 5597 5594 5591 5587 5583 5579 5574 5570 5565 5560 5555 5550 5546 5542 5538 5534 5530 5525 5521 5517 5513 5509 5506 5503 5500 5499 5497 5495 5495